| time (UTC) | temp C | wind direction | speed KPH | gust KPH | rain 1hr cm | rain 24hr cm | rain mn cm | humidity % | barometer mb |
| 20260509134550 | 22 | 175 | 0.0 | 0.0 | 0.00 | 0.05 | 0.00 | 92 | 1009.9 |
| 20260509133058 | 22 | 175 | 0.0 | 0.0 | 0.00 | 0.05 | 0.00 | 93 | 1010.0 |
| 20260509131545 | 22 | 175 | 0.0 | 0.0 | 0.00 | 0.05 | 0.00 | 93 | 1009.9 |
| 20260509130045 | 22 | 180 | 0.0 | 0.0 | 0.00 | 0.05 | 0.00 | 93 | 1010.0 |
| 20260509124547 | 21 | 180 | 0.0 | 0.0 | 0.00 | 0.05 | 0.00 | 92 | 1010.2 |
| 20260509123041 | 21 | 180 | 0.0 | 0.0 | 0.00 | 0.05 | 0.00 | 92 | 1010.1 |
| 20260509121551 | 21 | 180 | 0.0 | 0.0 | 0.00 | 0.05 | 0.00 | 92 | 1009.9 |
| 20260509120038 | 21 | 176 | 0.0 | 0.0 | 0.00 | 0.05 | 0.00 | 92 | 1009.9 |
| 20260509114550 | 21 | 184 | 0.0 | 0.0 | 0.00 | 0.05 | 0.00 | 92 | 1010.0 |
| 20260509113033 | 21 | 165 | 0.0 | 0.0 | 0.00 | 0.05 | 0.00 | 92 | 1009.7 |
| 20260509111533 | 21 | 165 | 0.0 | 0.0 | 0.00 | 0.05 | 0.00 | 92 | 1009.3 |
| 20260509110032 | 21 | 27 | 0.0 | 0.0 | 0.00 | 0.05 | 0.00 | 92 | 1008.6 |
| 20260509104547 | 21 | 314 | 0.0 | 0.0 | 0.00 | 0.05 | 0.00 | 91 | 1007.4 |
| 20260509103029 | 21 | 74 | 0.0 | 0.0 | 0.00 | 0.05 | 0.00 | 91 | 1006.8 |
| 20260509101528 | 21 | 12 | 0.0 | 0.0 | 0.00 | 0.05 | 0.00 | 90 | 1006.8 |
| 20260509100026 | 21 | 9 | 0.0 | 0.0 | 0.00 | 0.05 | 0.00 | 90 | 1007.0 |
| 20260509094525 | 21 | 49 | 0.0 | 0.0 | 0.00 | 0.05 | 0.00 | 89 | 1008.0 |
| 20260509093024 | 21 | 17 | 0.0 | 0.0 | 0.00 | 0.05 | 0.00 | 89 | 1008.6 |
| 20260509091520 | 21 | 31 | 0.0 | 0.0 | 0.00 | 0.05 | 0.00 | 89 | 1009.0 |
| 20260509090020 | 21 | 31 | 0.0 | 0.0 | 0.00 | 0.05 | 0.00 | 89 | 1009.2 |
| 20260509084607 | 21 | 31 | 0.0 | 0.0 | 0.00 | 0.05 | 0.00 | 89 | 1009.3 |
| 20260509083011 | 21 | 31 | 0.0 | 0.0 | 0.00 | 0.05 | 0.00 | 88 | 1009.7 |
| 20260509081605 | 21 | 31 | 0.0 | 0.0 | 0.00 | 0.05 | 0.00 | 88 | 1009.9 |
| 20260509080009 | 21 | 31 | 0.0 | 0.0 | 0.00 | 0.05 | 0.00 | 88 | 1010.2 |
| 20260509074503 | 21 | 30 | 0.0 | 0.0 | 0.00 | 0.05 | 0.00 | 87 | 1010.1 |
| 20260509073002 | 21 | 24 | 0.0 | 0.0 | 0.00 | 0.05 | 0.00 | 87 | 1010.2 |
| 20260509071602 | 21 | 21 | 0.0 | 0.0 | 0.00 | 0.05 | 0.00 | 86 | 1010.3 |
| 20260509070100 | 21 | 21 | 0.0 | 0.0 | 0.00 | 0.05 | 0.00 | 85 | 1010.2 |
| 20260509064555 | 22 | 21 | 0.0 | 0.0 | 0.00 | 0.05 | 0.00 | 85 | 1010.3 |
| 20260509063107 | 22 | 19 | 0.0 | 0.0 | 0.00 | 0.05 | 0.00 | 85 | 1010.1 |
| 20260509061556 | 22 | 19 | 0.0 | 0.0 | 0.00 | 0.05 | 0.00 | 85 | 1010.1 |
| 20260509060054 | 22 | 19 | 0.0 | 0.0 | 0.00 | 0.05 | 0.00 | 85 | 1009.8 |
| 20260509054551 | 22 | 15 | 0.0 | 0.0 | 0.00 | 0.05 | 0.00 | 85 | 1009.5 |
| 20260509053047 | 22 | 30 | 0.0 | 0.0 | 0.00 | 0.05 | 0.00 | 84 | 1010.5 |
| 20260509051545 | 22 | 22 | 0.0 | 0.0 | 0.00 | 0.05 | 0.00 | 84 | 1010.6 |
| 20260509050051 | 22 | 22 | 0.0 | 0.0 | 0.00 | 0.05 | 0.00 | 83 | 1010.6 |
| 20260509044536 | 22 | 22 | 0.0 | 0.0 | 0.00 | 0.05 | 0.05 | 83 | 1010.5 |
| 20260509043043 | 22 | 22 | 0.0 | 0.0 | 0.00 | 0.05 | 0.05 | 84 | 1010.3 |
| 20260509041537 | 22 | 22 | 0.0 | 0.0 | 0.00 | 0.05 | 0.05 | 84 | 1010.2 |
| 20260509040038 | 22 | 22 | 0.0 | 0.0 | 0.00 | 0.05 | 0.05 | 84 | 1010.0 |
| 20260509034533 | 22 | 22 | 0.0 | 0.0 | 0.00 | 0.05 | 0.05 | 83 | 1009.7 |
| 20260509033039 | 22 | 22 | 0.0 | 0.0 | 0.00 | 0.05 | 0.05 | 83 | 1009.7 |
| 20260509031533 | 22 | 22 | 0.0 | 0.0 | 0.00 | 0.05 | 0.05 | 83 | 1009.7 |
| 20260509030031 | 22 | 22 | 0.0 | 0.0 | 0.00 | 0.05 | 0.05 | 82 | 1009.7 |
| 20260509024533 | 22 | 22 | 0.0 | 0.0 | 0.00 | 0.05 | 0.05 | 82 | 1009.5 |
| 20260509023030 | 22 | 22 | 0.0 | 0.0 | 0.00 | 0.05 | 0.05 | 81 | 1009.2 |
| 20260509021532 | 23 | 22 | 0.0 | 0.0 | 0.00 | 0.05 | 0.05 | 81 | 1008.9 |
| 20260509020030 | 23 | 22 | 0.0 | 0.0 | 0.00 | 0.05 | 0.05 | 81 | 1008.8 |
| 20260509014528 | 23 | 22 | 0.0 | 0.0 | 0.00 | 0.05 | 0.05 | 81 | 1008.7 |
| 20260509013029 | 22 | 22 | 0.0 | 0.0 | 0.00 | 0.05 | 0.05 | 81 | 1008.4 |
| 20260509011528 | 22 | 22 | 0.0 | 0.0 | 0.00 | 0.05 | 0.05 | 81 | 1008.3 |
| 20260509010033 | 23 | 22 | 0.0 | 0.0 | 0.00 | 0.05 | 0.05 | 79 | 1008.0 |
| 20260509004527 | 23 | 22 | 0.0 | 0.0 | 0.00 | 0.05 | 0.05 | 78 | 1007.9 |
| 20260509003028 | 23 | 22 | 0.0 | 0.0 | 0.00 | 0.05 | 0.05 | 76 | 1008.1 |
| 20260509001526 | 24 | 22 | 0.0 | 0.0 | 0.00 | 0.05 | 0.05 | 76 | 1008.2 |
| 20260509000038 | 24 | 28 | 0.0 | 0.0 | 0.00 | 0.05 | 0.05 | 75 | 1008.2 |
| 20260508234526 | 24 | 30 | 0.0 | 0.0 | 0.00 | 0.05 | 0.05 | 74 | 1008.3 |
| 20260508233024 | 24 | 61 | 0.0 | 0.0 | 0.00 | 0.05 | 0.05 | 74 | 1008.2 |
| 20260508231526 | 25 | 248 | 0.0 | 0.0 | 0.00 | 0.05 | 0.05 | 72 | 1008.2 |
| 20260508230024 | 25 | 19 | 0.0 | 0.0 | 0.00 | 0.05 | 0.05 | 71 | 1008.3 |
| 20260508224545 | 25 | 313 | 0.0 | 0.0 | 0.00 | 0.05 | 0.05 | 72 | 1008.1 |
| 20260508223022 | 24 | 74 | 0.0 | 0.0 | 0.00 | 0.05 | 0.05 | 73 | 1007.9 |
| 20260508221520 | 24 | 21 | 0.0 | 0.0 | 0.00 | 0.05 | 0.05 | 74 | 1008.3 |
| 20260508220028 | 23 | 30 | 0.0 | 0.0 | 0.03 | 0.05 | 0.05 | 77 | 1008.5 |
| 20260508214518 | 22 | 174 | 0.0 | 0.0 | 0.05 | 0.05 | 0.05 | 81 | 1009.2 |
| 20260508213022 | 21 | 182 | 0.0 | 0.0 | 0.05 | 0.05 | 0.05 | 84 | 1010.2 |
| 20260508211519 | 21 | 193 | 0.0 | 0.0 | 0.05 | 0.05 | 0.05 | 84 | 1009.8 |
| 20260508210016 | 21 | 192 | 0.0 | 0.0 | 0.03 | 0.03 | 0.03 | 82 | 1009.9 |
| 20260508204509 | 23 | 192 | 0.0 | 0.0 | 0.00 | 0.00 | 0.00 | 74 | 1010.4 |
| 20260508203011 | 23 | 192 | 0.0 | 0.0 | 0.00 | 0.00 | 0.00 | 71 | 1010.9 |
| 20260508201506 | 23 | 18 | 0.0 | 0.0 | 0.00 | 0.00 | 0.00 | 71 | 1010.0 |
| 20260508200015 | 23 | 189 | 0.0 | 0.0 | 0.00 | 0.00 | 0.00 | 72 | 1010.1 |
| 20260508194510 | 24 | 186 | 0.0 | 0.0 | 0.00 | 0.00 | 0.00 | 70 | 1010.4 |
| 20260508193002 | 25 | 261 | 0.0 | 0.0 | 0.00 | 0.00 | 0.00 | 68 | 1010.6 |
| 20260508191558 | 24 | 273 | 0.0 | 0.0 | 0.00 | 0.00 | 0.00 | 70 | 1010.8 |
| 20260508190055 | 24 | 273 | 0.0 | 0.0 | 0.00 | 0.00 | 0.00 | 69 | 1011.1 |
| 20260508184555 | 25 | 90 | 0.0 | 0.0 | 0.00 | 0.00 | 0.00 | 66 | 1011.4 |
| 20260508183116 | 25 | 35 | 0.0 | 0.0 | 0.00 | 0.00 | 0.00 | 66 | 1011.3 |
| 20260508181608 | 23 | 22 | 0.0 | 0.0 | 0.00 | 0.00 | 0.00 | 69 | 1011.8 |
| 20260508180049 | 24 | 22 | 0.0 | 0.0 | 0.00 | 0.00 | 0.00 | 69 | 1011.9 |
| 20260508174545 | 23 | 42 | 0.0 | 0.0 | 0.00 | 0.00 | 0.00 | 70 | 1012.0 |
| 20260508173044 | 25 | 26 | 0.0 | 0.0 | 0.00 | 0.00 | 0.00 | 64 | 1012.4 |
| 20260508171548 | 25 | 27 | 0.0 | 0.0 | 0.00 | 0.00 | 0.00 | 65 | 1012.4 |
| 20260508170037 | 25 | 17 | 0.0 | 0.0 | 0.00 | 0.00 | 0.00 | 68 | 1012.5 |
| 20260508164533 | 23 | 30 | 0.0 | 0.0 | 0.00 | 0.00 | 0.00 | 71 | 1013.1 |
| 20260508163030 | 22 | 38 | 0.0 | 0.0 | 0.00 | 0.00 | 0.00 | 72 | 1013.3 |
| 20260508161533 | 21 | 49 | 0.0 | 0.0 | 0.00 | 0.00 | 0.00 | 74 | 1013.7 |
| 20260508160027 | 21 | 23 | 0.0 | 0.0 | 0.00 | 0.00 | 0.00 | 75 | 1013.9 |
| 20260508154520 | 21 | 36 | 0.0 | 0.0 | 0.00 | 0.00 | 0.00 | 76 | 1014.2 |
| 20260508153018 | 20 | 36 | 0.0 | 0.0 | 0.00 | 0.00 | 0.00 | 76 | 1014.2 |
| 20260508151502 | 20 | 36 | 0.0 | 0.0 | 0.00 | 0.00 | 0.00 | 77 | 1014.5 |
| 20260508150124 | 19 | 37 | 0.0 | 0.0 | 0.00 | 0.00 | 0.00 | 82 | 1014.4 |
| 20260508144603 | 18 | 11 | 0.0 | 0.0 | 0.00 | 0.00 | 0.00 | 86 | 1014.5 |
| 20260508143054 | 17 | 39 | 0.0 | 0.0 | 0.00 | 0.00 | 0.00 | 88 | 1014.3 |
| 20260508141558 | 16 | 48 | 0.0 | 0.0 | 0.00 | 0.00 | 0.00 | 90 | 1014.3 |
| 20260508140054 | 16 | 47 | 0.0 | 0.0 | 0.00 | 0.00 | 0.00 | 90 | 1014.3 |